TimeCDT,TemperatureF,Dew PointF,Humidity,Sea Level PressureIn,VisibilityMPH,Wind Direction,Wind SpeedMPH,Gust SpeedMPH,PrecipitationIn,Events,Conditions,WindDirDegrees,DateUTC
12:15 AM,34.9,27.5,74,30.17,10.0,WSW,5.8,-,N/A,,Overcast,240,2012-10-28 05:15:00
12:35 AM,35.1,28.0,76,30.17,10.0,WSW,8.1,-,N/A,,Overcast,240,2012-10-28 05:35:00
12:55 AM,35.2,27.7,74,30.17,10.0,SSW,4.6,-,N/A,,Overcast,210,2012-10-28 05:55:00
1:15 AM,34.7,27.7,76,30.17,10.0,SW,3.5,-,N/A,,Overcast,220,2012-10-28 06:15:00
1:35 AM,34.7,27.9,76,30.17,10.0,Calm,Calm,-,N/A,,Overcast,0,2012-10-28 06:35:00
1:55 AM,33.8,28.2,80,30.17,10.0,SW,3.5,-,N/A,,Overcast,220,2012-10-28 06:55:00
2:15 AM,35.6,28.8,76,30.17,10.0,SW,8.1,-,N/A,,Overcast,220,2012-10-28 07:15:00
2:35 AM,35.8,29.3,77,30.15,10.0,SW,6.9,-,N/A,,Overcast,220,2012-10-28 07:35:00
2:55 AM,35.8,29.3,77,30.15,10.0,SW,6.9,-,N/A,,Overcast,220,2012-10-28 07:55:00
3:15 AM,36.1,29.3,76,30.15,10.0,SSW,8.1,-,N/A,,Overcast,210,2012-10-28 08:15:00
3:35 AM,36.7,29.3,75,30.14,10.0,SW,8.1,-,N/A,,Overcast,230,2012-10-28 08:35:00
3:55 AM,37.0,29.8,75,30.14,10.0,SW,9.2,-,N/A,,Overcast,230,2012-10-28 08:55:00
4:15 AM,37.0,30.0,76,30.14,10.0,SW,8.1,-,N/A,,Overcast,230,2012-10-28 09:15:00
4:35 AM,36.5,30.0,77,30.13,10.0,SW,8.1,-,N/A,,Overcast,220,2012-10-28 09:35:00
4:55 AM,35.8,29.8,79,30.13,10.0,WSW,8.1,-,N/A,,Mostly Cloudy,240,2012-10-28 09:55:00
5:15 AM,35.2,30.0,81,30.13,10.0,SW,8.1,-,N/A,,Overcast,230,2012-10-28 10:15:00
5:35 AM,35.8,30.2,80,30.13,10.0,SW,6.9,-,N/A,,Overcast,230,2012-10-28 10:35:00
5:55 AM,36.0,30.6,81,30.12,10.0,SW,6.9,-,N/A,,Overcast,220,2012-10-28 10:55:00
6:15 AM,36.7,30.7,79,30.12,10.0,SW,8.1,-,N/A,,Overcast,230,2012-10-28 11:15:00
6:35 AM,36.9,30.6,78,30.13,10.0,SW,6.9,-,N/A,,Overcast,230,2012-10-28 11:35:00
6:55 AM,36.9,30.4,77,30.13,10.0,SW,6.9,-,N/A,,Overcast,230,2012-10-28 11:55:00
7:15 AM,36.7,30.4,78,30.14,10.0,SW,4.6,-,N/A,,Overcast,230,2012-10-28 12:15:00
7:35 AM,37.4,30.6,76,30.13,10.0,SW,5.8,-,N/A,,Overcast,220,2012-10-28 12:35:00
7:55 AM,38.1,30.2,73,30.13,10.0,SW,5.8,-,N/A,,Overcast,230,2012-10-28 12:55:00
8:15 AM,38.7,30.2,72,30.14,10.0,WSW,6.9,-,N/A,,Overcast,240,2012-10-28 13:15:00
8:35 AM,38.8,30.2,71,30.15,10.0,WSW,6.9,-,N/A,,Overcast,240,2012-10-28 13:35:00
8:55 AM,39.4,30.2,70,30.14,10.0,SW,6.9,-,N/A,,Overcast,220,2012-10-28 13:55:00
9:35 AM,41.9,30.6,64,30.14,10.0,SW,4.6,-,N/A,,Overcast,230,2012-10-28 14:35:00
9:55 AM,43.0,30.2,61,30.14,10.0,WSW,6.9,-,N/A,,Overcast,250,2012-10-28 14:55:00
10:15 AM,43.7,30.9,61,30.14,10.0,WSW,5.8,-,N/A,,Overcast,250,2012-10-28 15:15:00
10:35 AM,46.9,28.9,50,30.14,10.0,SW,9.2,-,N/A,,Overcast,220,2012-10-28 15:35:00
10:55 AM,49.1,24.8,39,30.12,10.0,SSW,11.5,-,N/A,,Overcast,210,2012-10-28 15:55:00
11:15 AM,50.9,24.1,35,30.12,10.0,SSW,12.7,-,N/A,,Overcast,210,2012-10-28 16:15:00
11:35 AM,54.1,23.2,30,30.12,10.0,SSW,17.3,-,N/A,,Overcast,200,2012-10-28 16:35:00
11:55 AM,56.3,22.1,27,30.11,10.0,SSW,16.1,23.0,N/A,,Overcast,200,2012-10-28 16:55:00
12:15 PM,57.9,20.5,23,30.10,10.0,South,17.3,24.2,N/A,,Overcast,180,2012-10-28 17:15:00
12:35 PM,60.8,18.0,19,30.08,10.0,South,20.7,28.8,N/A,,Overcast,190,2012-10-28 17:35:00
12:55 PM,61.3,17.4,18,30.08,10.0,SSW,19.6,27.6,N/A,,Scattered Clouds,200,2012-10-28 17:55:00
1:15 PM,63.0,16.7,17,30.07,10.0,SSW,23.0,31.1,N/A,,Clear,210,2012-10-28 18:15:00
1:35 PM,62.1,15.8,17,30.06,10.0,SSW,23.0,28.8,N/A,,Scattered Clouds,200,2012-10-28 18:35:00
1:55 PM,65.3,14.9,14,30.05,10.0,SSW,19.6,28.8,N/A,,Mostly Cloudy,210,2012-10-28 18:55:00
2:15 PM,66.0,17.2,15,30.04,10.0,SSW,18.4,26.5,N/A,,Scattered Clouds,210,2012-10-28 19:15:00
2:35 PM,66.2,17.2,15,30.02,10.0,WSW,13.8,25.3,N/A,,Clear,240,2012-10-28 19:35:00
2:55 PM,67.5,17.8,15,30.01,10.0,SW,11.5,18.4,N/A,,Clear,220,2012-10-28 19:55:00
3:15 PM,65.5,19.4,17,30.00,10.0,SW,9.2,-,N/A,,Clear,220,2012-10-28 20:15:00
3:35 PM,65.3,19.9,18,30.00,10.0,SSW,13.8,-,N/A,,Clear,210,2012-10-28 20:35:00
3:55 PM,64.2,19.8,18,30.00,10.0,South,9.2,18.4,N/A,,Clear,190,2012-10-28 20:55:00
4:15 PM,66.4,20.1,17,30.00,10.0,WSW,8.1,-,N/A,,Clear,250,2012-10-28 21:15:00
4:35 PM,63.9,21.2,20,29.99,10.0,SW,10.4,-,N/A,,Clear,220,2012-10-28 21:35:00
4:55 PM,66.0,20.7,18,29.99,10.0,SW,10.4,-,N/A,,Clear,220,2012-10-28 21:55:00
5:15 PM,65.7,20.8,18,30.00,10.0,SW,9.2,-,N/A,,Clear,220,2012-10-28 22:15:00
5:35 PM,65.1,21.0,19,29.99,10.0,SW,6.9,-,N/A,,Clear,220,2012-10-28 22:35:00
5:55 PM,64.0,21.7,20,29.99,10.0,SW,8.1,-,N/A,,Clear,230,2012-10-28 22:55:00
6:15 PM,59.9,22.8,24,30.00,10.0,SSW,5.8,-,N/A,,Clear,210,2012-10-28 23:15:00
6:35 PM,57.4,23.9,28,30.00,10.0,SSW,8.1,-,N/A,,Clear,200,2012-10-28 23:35:00
6:55 PM,53.8,25.3,33,30.00,10.0,SSW,9.2,-,N/A,,Clear,200,2012-10-28 23:55:00
7:15 PM,50.5,26.6,39,30.02,10.0,SSW,10.4,-,N/A,,Clear,200,2012-10-29 00:15:00
7:35 PM,49.1,26.8,42,30.02,10.0,South,9.2,-,N/A,,Clear,190,2012-10-29 00:35:00
7:55 PM,46.6,27.5,47,30.02,10.0,SSW,5.8,-,N/A,,Clear,200,2012-10-29 00:55:00
8:15 PM,45.7,27.3,49,30.03,10.0,WSW,5.8,-,N/A,,Clear,240,2012-10-29 01:15:00
8:55 PM,45.3,28.4,52,30.03,10.0,WSW,5.8,-,N/A,,Mostly Cloudy,240,2012-10-29 01:55:00
9:15 PM,44.6,28.4,53,30.03,10.0,SW,6.9,-,N/A,,Scattered Clouds,230,2012-10-29 02:15:00
9:35 PM,46.0,30.0,54,30.04,10.0,SW,5.8,-,N/A,,Mostly Cloudy,220,2012-10-29 02:35:00
9:55 PM,46.4,30.2,53,30.04,10.0,SW,6.9,-,N/A,,Overcast,220,2012-10-29 02:55:00
10:15 PM,47.1,30.2,52,30.04,10.0,SW,9.2,-,N/A,,Mostly Cloudy,220,2012-10-29 03:15:00
10:55 PM,44.8,30.7,58,30.06,10.0,WSW,8.1,-,N/A,,Clear,250,2012-10-29 03:55:00
11:15 PM,44.1,30.7,59,30.05,10.0,SW,9.2,-,N/A,,Clear,220,2012-10-29 04:15:00
11:55 PM,42.8,30.2,61,30.06,10.0,SW,9.2,-,N/A,,Clear,220,2012-10-29 04:55:00